Regional Weather Roundup
Issued by NWS Charleston, SC

Current Version | Previous Version | Text Only | Print | Product List | Glossary Off
Versions: 1 2 3 4 5 6 7 8 9 10 11 12 13 14 15 16 17 18 19 20 21 22 23 24 25 26 27 28 29 30 31 32 33 34 35 36 37 38 39 40 41 42 43 44 45 46 47 48 49 50

000
ASUS42 KCHS 260713
RWRCHS

REGIONAL WEATHER ROUNDUP
NATIONAL WEATHER SERVICE CHARLESTON SC
300 AM EDT TUE JUL 26 2016

NOTE: "FAIR" INDICATES FEW OR NO CLOUDS BELOW 12,000 FEET WITH NO
SIGNIFICANT WEATHER AND/OR OBSTRUCTIONS TO VISIBILITY.

NOT ALL STATIONS ARE QUALITY CONTROLLED. USE DATA WITH CAUTION...
ESPECIALLY DEWPOINT OBSERVATIONS.

SCZ027-030-031-034>040-042>050-260800-
...SOUTHEAST SOUTH CAROLINA...

CITY           SKY/WX    TMP DP  RH WIND       PRES   REMARKS
N CHARLESTON   CLEAR     75  72  90 SW5       30.04F
WATERFRONT PRK   N/A     82  76  82 VRB3      30.02F
MOUNT PLEASANT FAIR      75  73  94 CALM      30.04F
JOHNS ISLAND   FAIR      81  75  83 CALM      30.04F
PINOPOLIS        N/A     79  73  83 S6        29.97F
MONCKS CORNER  FAIR      72  70  94 CALM      30.04F
SUMMERVILLE    FAIR      73  73 100 CALM      30.05S
BEAUFORT MCAS  CLEAR     78  73  84 S3        30.05F
BEAUFORT ARPT  FAIR      81  73  78 SW5       30.04F
HILTON HEAD IS CLEAR     81  75  83 W3        30.06F
WALTERBORO     SUNNY     77  77 100 CALM      30.05F
ALLENDALE      FAIR      77  72  83 CALM      30.04F

...SOUTHERN MIDLANDS AND PEE DEE...

CITY           SKY/WX    TMP DP  RH WIND       PRES   REMARKS
GEORGETOWN     FAIR      73  72  94 SW3       30.05F
KINGSTREE      FAIR      73  70  88 CALM      30.03F
ORANGEBURG     PTCLDY    75  72  90 SW3       30.05F
BARNWELL       NOT AVBL
AIKEN          NOT AVBL
MANNING        FAIR      79  72  78 SW7       30.04F
COLUMBIA       CLEAR     80  70  71 SW8       30.02F
SUMTER         CLEAR     78  72  82 SW9       30.01S
FLORENCE       CLEAR     78  73  84 SW8       30.02F
MYRTLE BEACH   CLEAR     79  68  69 SW3       30.05F
N MYRTLE BEACH CLEAR     80  73  79 SW8       30.03F

$$

GAZ063-065-086>088-099>101-113>116-118-119-134>141-150-260800-
...SOUTHEAST GEORGIA...

CITY           SKY/WX    TMP DP  RH WIND       PRES   REMARKS
SAVANNAH ARPT  CLEAR     78  72  81 SW6       30.06F
HUNTER AAF     CLEAR     79  77  95 SW6       30.03F
FORT STEWART   CLEAR     75  72  88 CALM      30.03F
STATESBORO     CLEAR     77  74  91 S3        30.04F
SYLVANIA       NOT AVBL
CLAXTON        FAIR      76  74  93 CALM      30.05F

...CSRA...CENTRAL AND FAR SOUTHEAST GEORGIA...

CITY           SKY/WX    TMP DP  RH WIND       PRES   REMARKS
THOMSON        NOT AVBL
AUGUSTA-BUSH   CLEAR     76  70  82 S6        30.03F
AUGUSTA-DANIEL CLEAR     80  70  71 S9        30.05F
SWAINSBORO     FAIR      77  72  83 S3        30.06S
VIDALIA        CLEAR     77  72  83 S5        30.05F
EASTMAN        FAIR      77  64  64 CALM      30.07S
HAZLEHURST     FAIR      78  76  91 CALM      30.05S
ALMA           CLEAR     76  72  87 CALM      30.05F
WAYCROSS       CLEAR     78  76  94 CALM      30.06F
JESUP          FAIR      73  73 100 CALM      30.06F
BAXLEY         FAIR      77  77 100 CALM      30.06F
BRUNSWICK      CLEAR     77  75  94 CALM      30.06F
SAINT SIMONS   CLEAR     81  74  79 S5        30.06F

$$

SCZ027-028-034-036>038-045-046-048>050-GAZ119-141-260800-
...LAKE AND SUPPLEMENTAL COASTAL OBSERVATIONS...

STATION/POSITION TIME  TEMP    WIND        PRES    WAVE   SWELL
                       AIR SEA DIR/SP/G            HT/PER HT/PER/DIR
                 (UTC) (F)     (DEG/KT/KT) (MB)    (FT/S) (FT/S/D)
WINYAH BAY       0545   79     250/  4     1017.0
LAKE MURRAY      NOT AVBL
ACE BASIN NERRS  0545   78        CALM     1018.0
FORT PULASKI     0600   83 87  230/  4/  7 1018.4F
SAPELO ISLAND    0600   82     200/  7     1018.0S

$$

ANZ835-935-AMZ111-154-330-350-352-354-370-450-454-472-260800-
...C-MAN AND BUOY OBSERVATIONS...

STATION/POSITION TIME  TEMP    WIND        PRES    WAVE   SWELL
                       AIR SEA DIR/SP/G            HT/PER HT/PER/DIR
                 (UTC) (F)     (DEG/KT/KT) (MB)    (FT/S) (FT/S/D)
BUOY 41004       0650   85 86  220/ 12/ 16 1016.9F   2/ 4   2/140/ 8
BUOY 41008       0650   85 86  190/ 14/ 16 1017.4F   3/ 4   2/ 80/ 9
FOLLY BEACH CMAN 0600   83     220/ 15/ 16 1018.1F
CAPERS NEARSHORE 0608   84 84  230/ 14/ 19 1017.8F
FRIPP NEARSHORE  0608   84 87  210/ 14/ 16 1017.1F


STATION/POSITION TIME  TEMP    WIND        PRES    WAVE   SWELL
                       AIR SEA DIR/SP/G            HT/PER HT/PER/DIR
                 (UTC) (F)     (DEG/KT/KT) (MB)    (FT/S) (FT/S/D)
5E ST. MARYS GA  0601      86                N/A     3/ 4
FRYING PAN BUOY  0600   85 86  230/ 16/ 19 1017.3F
BUOY 41025       0650   84 85  230/ 19/ 23 1015.6F   5/ 5
CAPE LOOKOUT NC  0600   83     240/ 10/ 13 1016.4F
BUOY 41002       0650   83 84  190/  6/  8 1018.8F   2/ 8   2/110/ 8
BUOY 41010       0620   85 86  180/ 10/ 14 1018.5F
ST AUGUSTINE FL  0700   79 85  210/  2/  3 1018.8F


$$



USA.gov is the U.S. government's official web portal to all federal, state and local government web resources and services.